Location: Newark
(41.0400°S, 62.7845°W)
Time: 07:56:00
(UTC+00:00)

Vanguard 2 - Visible Passes

Search period start: 03 December 2021 00:00
Search period end: 13 December 2021 00:00
Orbit: 554 x 2936 km, 32.9° (Epoch: 02 December)

Date Brightness Start Highest point End Pass type
(mag) Time Alt. Az. Time Alt. Az. Time Alt. Az.
03 Dec 10.9 02:36:48 25° NE 02:36:48 25° NE 02:46:24 10° E visible
03 Dec 10.2 04:37:58 34° NNW 04:45:15 48° NNE 04:58:01 10° E visible
03 Dec 9.8 06:40:20 10° WNW 06:56:27 60° N 07:07:00 10° ENE visible
04 Dec11.400:49:18ENE00:49:18ENE00:34:52NNEvisible
04 Dec 10.6 02:50:23 32° NNE 02:51:44 33° NNE 03:04:59 10° E visible
04 Dec 10.1 04:51:25 24° NW 05:02:56 54° NNE 05:15:50 10° E visible
04 Dec 9.8 06:58:08 10° WNW 07:14:10 60° N 07:24:34 10° ENE visible
05 Dec 11.1 00:50:10 10° NNE 00:58:57 16° NE 01:07:54 10° ENE visible
05 Dec 10.5 02:53:39 10° NNW 03:09:11 39° NNE 03:23:14 10° E visible
05 Dec 10.1 05:03:24 10° WNW 05:20:39 59° N 05:33:34 10° E visible
05 Dec 9.8 07:16:00 10° W 07:31:50 59° N 07:42:06 10° ENE visible
06 Dec 10.9 01:04:42 10° N 01:16:08 22° NE 01:27:52 10° E visible
06 Dec 10.4 03:10:27 10° NW 03:26:43 46° NNE 03:41:17 10° E visible
06 Dec 10.0 05:20:59 10° WNW 05:38:24 62° N 05:51:16 10° E visible
06 Dec 9.8 07:33:55 10° W 07:49:28 55° NNW 07:59:31 10° ENE visible
07 Dec 10.7 01:20:18 10° NNW 01:33:21 29° NE 01:46:51 10° E visible
07 Dec 10.3 03:27:31 10° NW 03:44:18 52° NNE 03:59:10 10° E visible
07 Dec 10.0 05:38:42 10° WNW 05:56:09 63° N 06:08:54 10° ENE visible
07 Dec 9.9 07:51:53 10° W 08:06:59 50° NNW 08:16:51 10° NE visible
08 Dec 10.6 01:36:29 10° NNW 01:50:38 35° NE 02:05:21 10° E visible
08 Dec 10.2 03:44:49 10° WNW 04:01:59 57° NNE 04:16:59 10° E visible
08 Dec 10.0 05:56:30 10° W 06:13:54 63° N 06:26:30 10° ENE visible
08 Dec 11.0 23:49:30 10° NNE 23:58:14 17° NE 00:07:49 10° E visible
09 Dec 10.4 01:53:05 10° NNW 02:08:00 42° NNE 02:23:33 10° E visible
09 Dec 10.2 04:02:17 10° WNW 04:19:42 62° N 04:34:45 10° E visible
09 Dec 10.0 06:14:21 10° W 06:31:36 61° NNW 06:44:01 10° ENE visible
10 Dec 10.8 00:04:29 10° N 00:15:16 24° NE 00:27:30 10° E visible
10 Dec 10.4 02:10:00 10° NW 02:25:28 49° NNE 02:41:35 10° E visible
10 Dec 10.2 04:19:54 10° WNW 04:37:27 64° N 04:52:28 10° E visible
10 Dec 10.0 06:32:16 10° W 06:49:13 57° NNW 07:01:27 10° ENE visible
11 Dec 10.7 00:20:20 10° NNW 00:32:21 30° NE 00:46:23 10° E visible
11 Dec 10.3 02:27:09 10° NW 02:43:01 55° NNE 02:59:30 10° E visible
11 Dec 10.1 04:37:37 10° WNW 04:55:14 65° N 05:10:08 10° ENE visible
11 Dec 10.1 06:50:13 10° W 07:06:45 52° NNW 07:18:43 10° NE visible
12 Dec 10.5 00:36:42 10° NNW 00:49:32 37° NE 01:04:49 10° E visible
12 Dec 10.2 02:44:29 10° WNW 03:00:40 60° NNE 03:17:20 10° E visible
12 Dec 10.1 04:55:23 10° W 05:12:59 64° N 05:27:44 10° ENE visible
12 Dec 10.2 07:08:14 10° W 07:24:10 45° NNW 07:35:50 10° NE visible
